Wind_Speed
15 15 16 17 18 18 18 19 18 18 17 19 22 22 19 13 9 10 9 9 7 6 4 7 10 9 11 15 16 16 12 9 11 14 18 22 24 24 19 13 11 14 16 17 16 16 15 15 14 13 13 14 15 18 19 16 15 15 14 14 15 14 13 13 15 15 14 14 13 14 14 13 13 13 13 13 13 13 11 9 9 9 9 9 10 10
13 15 17 17 16 14 13 15 15 15 16 21 25 22 17 11 11 13 9 7 7 8 8 8 11 12 15 17 17 18 14 12 14 17 20 23 26 24 18 12 11 11 13 16 17 17 17 16 15 14 15 15 15 15 15 15 16 15 15 16 16 14 12 12 15 16 15 13 14 15 16 15 13 13 13 12 13 13 13 12 10 10 10 11 11 11
14 14 16 16 15 12 11 14 14 15 16 20 25 23 17 14 14 14 14 12 11 13 12 12 12 14 19 20 19 19 17 15 17 19 22 24 25 24 22 19 15 11 12 15 17 18 17 17 16 16 17 17 15 15 15 16 17 17 16 17 16 14 12 13 15 17 16 13 13 15 15 16 15 14 13 13 13 13 13 13 12 11 11 12 12 12
15 15 16 16 15 15 17 18 18 18 17 19 23 24 19 17 17 17 21 20 17 18 17 17 15 15 19 21 20 21 20 19 20 21 23 24 22 23 26 26 22 17 15 15 16 17 16 16 17 17 18 18 17 16 16 17 17 17 16 16 17 17 15 14 16 18 17 14 13 13 14 15 15 14 13 13 13 13 13 13 12 12 12 12 12 13
16 17 17 16 16 18 20 21 21 20 18 18 22 26 22 20 21 22 26 26 23 23 22 21 18 17 21 21 18 21 22 22 23 23 24 24 24 25 27 28 28 26 22 19 17 16 15 15 16 17 18 18 18 17 17 17 16 16 16 16 17 18 18 16 16 17 18 15 13 12 13 14 14 14 12 12 12 12 13 13 13 12 12 12 12 12
18 19 19 18 18 19 20 20 19 18 18 19 22 28 25 23 26 26 28 29 27 26 25 26 26 23 24 24 22 24 26 25 25 26 27 26 27 28 28 28 30 30 25 18 16 15 15 15 15 15 16 17 18 18 17 17 16 16 16 16 17 19 20 19 18 17 19 17 13 12 12 12 13 14 12 12 12 11 12 12 13 13 12 12 12 12
19 21 21 19 18 19 19 18 16 16 19 20 22 29 29 27 29 30 30 31 30 28 27 27 27 26 26 26 27 29 31 30 28 29 29 28 28 28 29 29 27 23 18 15 13 13 13 13 12 12 14 14 15 16 16 16 16 16 16 17 17 19 20 21 20 19 20 19 15 12 11 11 12 13 12 12 12 11 11 12 12 13 12 12 12 11
21 22 21 19 18 18 18 16 15 16 18 19 20 28 34 32 31 31 32 33 33 32 30 28 26 24 23 24 27 30 32 32 32 32 31 30 29 29 31 28 22 19 17 16 15 14 13 12 9 9 11 12 14 15 15 15 15 15 16 17 16 17 19 21 22 23 23 22 18 14 11 11 12 13 14 13 13 12 12 12 13 13 13 12 12 12
21 21 19 17 17 18 16 14 15 17 17 18 20 27 36 36 32 31 32 33 35 34 31 30 27 23 20 20 25 30 32 33 35 34 33 32 31 32 32 27 22 21 20 20 20 17 14 11 8 8 9 11 12 14 14 15 16 17 17 17 16 16 19 21 22 24 23 21 19 15 12 11 12 13 15 14 14 14 14 14 14 14 13 12 12 12
20 20 18 16 17 18 16 14 15 17 19 21 23 27 34 38 36 34 33 34 36 34 31 30 28 26 23 19 21 25 27 31 35 36 35 34 34 34 32 27 24 24 24 23 21 15 10 9 9 9 9 9 10 11 13 15 16 17 17 16 16 17 19 20 20 21 21 20 20 18 14 13 12 13 15 15 15 15 15 15 15 15 14 13 11 11
20 20 19 18 18 18 17 17 18 18 21 23 25 26 30 34 37 37 36 36 37 36 33 32 31 30 27 22 22 23 23 26 32 35 35 35 34 33 31 28 26 27 26 21 15 11 10 10 11 12 12 11 11 11 13 14 15 17 17 18 18 19 19 20 20 20 21 24 26 27 23 17 13 13 14 16 16 16 16 16 16 16 14 13 11 10
20 20 20 20 19 19 19 20 20 18 20 23 24 25 27 28 31 33 35 36 37 36 35 34 34 32 30 25 22 23 23 24 29 33 33 32 31 30 30 29 29 29 25 17 11 10 10 10 11 12 13 14 14 14 14 15 16 18 19 21 21 21 21 22 23 22 23 25 28 33 32 23 15 13 15 17 17 17 17 16 16 16 15 12 11 10
18 19 20 20 21 21 19 18 19 18 19 20 20 21 23 24 26 27 27 28 29 31 32 33 33 31 28 25 21 21 23 25 29 31 29 28 28 28 29 29 28 27 23 16 12 10 10 10 12 14 16 17 17 16 16 15 16 18 20 21 23 24 23 23 24 26 26 26 26 30 31 25 18 15 15 17 18 18 17 17 16 16 14 12 10 10
18 18 19 19 19 19 16 16 18 19 20 20 17 17 19 21 23 24 23 24 24 26 28 29 29 27 25 23 21 20 22 25 28 29 28 28 27 26 26 27 27 25 20 16 14 13 13 14 16 17 17 17 17 17 17 17 17 18 20 23 27 30 28 24 23 26 28 27 27 28 29 29 25 19 15 17 18 18 18 18 17 16 14 12 10 10
21 19 18 16 17 17 15 16 19 21 22 22 20 19 20 21 22 22 22 23 23 24 24 23 24 24 22 22 22 21 23 25 26 27 29 29 28 27 26 26 24 20 17 16 17 16 15 17 18 17 16 17 18 18 19 19 19 20 23 26 31 32 29 23 22 26 28 27 27 29 31 33 32 24 17 17 17 17 17 18 17 16 14 12 10 10
24 22 18 16 17 18 16 16 18 19 19 21 23 22 22 21 20 20 20 20 21 22 23 22 22 22 20 21 24 23 25 27 27 26 28 29 30 28 26 25 23 19 18 20 20 18 17 18 19 18 18 19 20 20 20 21 21 23 25 27 28 28 26 24 23 25 26 25 26 28 29 31 31 25 20 18 17 16 17 18 18 17 15 13 11 10
24 21 18 18 16 16 16 15 13 14 18 20 21 21 21 20 19 18 18 18 19 21 22 20 20 21 21 21 23 22 23 26 27 26 25 26 27 25 23 23 22 21 21 22 22 20 20 20 21 21 20 20 20 21 20 21 21 23 25 26 24 22 24 25 24 24 26 26 24 24 23 23 23 21 21 20 18 16 17 18 19 18 16 14 12 12
23 18 18 19 16 14 16 15 10 12 17 18 16 18 20 18 18 18 16 15 17 17 18 17 18 20 21 22 22 21 20 20 21 21 21 21 20 18 18 19 19 20 21 22 23 23 22 22 22 21 20 19 20 20 20 20 21 22 23 22 20 20 22 24 23 23 26 25 20 18 18 20 20 20 22 21 18 17 18 18 19 20 18 16 14 13
22 18 19 22 20 17 17 15 11 12 17 18 17 18 19 17 17 18 16 16 16 15 15 15 18 21 22 22 22 21 20 20 19 19 20 20 19 18 18 17 19 22 24 24 24 24 23 21 20 19 19 19 19 19 19 20 21 22 23 20 19 19 20 20 20 21 22 20 17 15 16 19 20 21 23 23 19 18 19 19 19 19 20 19 16 15
23 20 20 22 21 20 18 16 15 16 19 21 20 21 21 19 19 19 19 18 16 15 15 14 16 20 21 22 23 21 21 21 20 20 20 20 20 20 18 18 21 23 24 23 22 22 20 18 17 18 18 19 18 18 19 20 21 23 24 23 20 19 18 18 18 19 22 21 20 18 17 17 19 21 24 24 21 19 20 20 19 18 18 19 19 18
25 22 22 23 22 20 19 19 20 21 21 21 20 22 24 25 24 23 22 21 19 17 16 15 16 18 19 21 22 21 21 22 21 20 21 21 21 20 18 19 22 23 22 21 20 19 18 17 17 18 19 20 19 20 20 21 22 23 24 24 23 21 20 19 19 19 20 19 17 16 15 17 18 20 22 23 20 18 17 18 18 17 16 17 18 19
27 23 22 25 25 24 21 20 22 22 21 20 19 21 25 27 26 25 23 23 22 20 20 19 18 19 20 21 21 21 21 21 22 22 23 23 22 21 19 19 21 22 21 20 19 20 20 18 18 19 20 20 20 21 21 22 23 23 23 24 24 24 24 23 23 22 21 20 18 17 18 20 21 22 22 22 22 21 19 19 19 19 19 19 19 20
29 26 23 23 27 29 25 22 22 22 21 22 21 21 24 26 27 26 24 23 23 22 23 23 22 22 24 24 23 23 22 22 23 23 23 24 24 25 23 20 20 21 22 21 20 22 23 22 20 20 20 21 22 22 22 23 23 23 24 25 25 26 26 26 26 25 23 23 25 26 24 22 22 24 25 24 25 27 25 24 23 22 22 22 21 21
30 27 24 21 25 30 29 24 22 22 22 22 23 24 24 26 27 27 25 24 23 23 23 24 23 23 25 24 24 24 23 23 24 24 24 24 25 25 25 23 22 22 22 23 24 26 27 26 23 22 22 23 24 23 23 24 25 26 26 27 28 29 29 29 28 26 25 26 27 29 28 26 25 26 28 26 25 27 26 25 25 23 23 23 23 23
31 29 26 23 22 27 31 28 24 24 24 23 25 26 26 26 26 27 26 26 26 26 26 25 25 25 26 25 25 25 25 25 26 26 25 25 25 25 25 25 24 24 25 26 27 27 27 25 25 25 26 27 27 27 27 27 27 28 28 29 30 31 31 32 31 29 29 28 27 27 27 27 25 22 22 22 22 23 25 25 25 24 23 24 24 24
33 31 31 29 26 27 31 31 29 29 28 27 28 28 29 29 29 29 29 29 29 29 29 29 29 29 30 31 31 30 29 29 29 29 28 28 27 27 27 27 27 27 26 25 26 26 25 26 27 27 28 29 30 29 29 29 29 30 31 32 33 33 33 33 33 32 31 29 28 28 28 29 26 22 22 25 27 27 28 28 28 27 27 27 26 25
33 32 32 31 29 30 31 30 30 30 31 30 31 32 33 33 33 32 32 32 32 32 32 32 32 31 32 33 32 31 29 29 30 31 31 30 29 28 29 29 28 27 26 26 26 26 27 27 28 28 30 30 30 30 31 31 32 32 34 35 36 36 36 35 35 34 33 30 28 27 26 28 30 29 31 34 35 33 33 32 32 33 33 32 30 28
33 33 32 30 29 30 30 28 28 29 29 30 31 33 34 35 35 34 34 34 33 32 32 32 32 32 32 31 31 31 30 30 30 31 31 31 31 31 31 31 30 30 30 30 30 30 30 30 30 30 30 31 31 32 32 33 33 35 36 37 37 37 37 37 37 36 35 33 31 29 27 30 33 35 35 36 36 36 36 36 37 37 37 36 34 32
30 31 31 29 29 29 28 28 28 28 28 28 29 31 33 34 34 34 34 34 33 33 33 33 33 34 34 34 35 36 36 36 35 35 35 36 36 36 35 35 35 35 35 36 36 36 36 35 34 33 32 33 34 34 34 35 36 37 38 38 39 39 39 40 39 38 37 37 37 37 37 38 40 41 41 40 39 40 40 40 40 40 40 39 38 37
32 32 32 32 32 32 32 32 31 30 30 30 31 31 32 32 34 34 34 34 34 34 35 35 36 38 39 39 40 41 41 40 40 40 40 41 41 41 40 40 40 39 40 41 41 41 39 38 38 38 38 38 38 39 40 40 40 40 39 40 40 40 41 41 41 40 39 39 40 40 41 42 42 43 44 45 45 44 43 43 43 43 42 42 42 41
36 35 36 35 35 34 34 34 34 33 33 33 34 33 33 34 35 36 36 36 36 37 38 39 40 41 42 43 43 43 44 43 43 43 43 44 44 45 45 45 45 44 43 43 43 42 41 41 42 43 42 41 40 40 41 41 42 41 41 40 40 41 42 42 42 42 42 42 41 41 42 42 42 42 44 45 47 48 47 46 46 45 45 45 44 44
37 37 37 37 36 36 35 35 35 35 35 35 36 35 35 36 38 39 40 40 41 42 42 43 43 44 45 46 46 46 46 47 46 46 45 45 46 47 47 48 48 48 46 46 45 44 45 45 46 46 46 44 43 42 41 40 41 42 42 42 42 43 43 43 43 43 43 43 43 42 42 42 42 42 42 42 44 46 48 48 47 47 47 46 46 46
41 40 40 40 40 39 40 39 39 39 39 39 38 38 38 39 40 41 42 43 44 44 44 44 44 44 45 46 46 47 48 49 48 47 46 47 47 46 47 48 48 49 48 48 47 48 48 48 47 47 48 48 47 47 46 45 44 42 42 42 42 43 43 43 43 42 42 43 43 43 43 43 43 43 43 43 43 43 45 46 46 46 45 45 45 45
43 43 43 43 43 43 43 43 42 42 42 42 42 41 41 42 42 42 42 43 44 45 44 44 43 44 44 45 46 46 47 48 48 47 47 47 46 45 45 46 47 48 49 49 49 48 48 48 48 47 47 47 47 47 47 47 46 45 44 44 44 44 44 45 44 43 43 43 43 44 44 43 44 44 44 44 44 43 42 43 43 43 43 43 44 44
41 41 41 43 43 44 45 44 43 43 43 42 41 42 42 42 41 41 42 43 44 44 45 45 44 44 44 44 45 45 45 45 46 46 47 46 46 45 45 46 45 46 48 49 49 48 46 46 47 45 43 42 42 43 44 44 45 46 47 47 48 47 46 45 45 45 45 45 45 45 45 46 46 46 45 44 44 43 42 42 42 43 45 46 47 48
40 40 40 42 42 42 43 43 43 43 43 41 41 41 41 42 41 41 42 43 44 45 45 45 45 45 45 45 45 45 46 46 47 48 48 49 49 49 49 49 48 47 47 47 48 48 46 47 48 46 43 42 43 45 47 47 47 48 48 48 48 48 48 48 49 49 49 49 48 48 48 48 48 47 46 45 45 45 45 45 46 48 49 50 50 50
42 42 42 43 43 43 43 42 42 43 44 44 43 42 41 41 41 42 43 44 46 46 47 47 47 48 48 48 49 49 50 51 52 52 52 52 52 52 52 51 50 49 47 45 45 46 47 47 47 46 44 43 45 47 48 49 49 48 48 49 50 49 49 50 52 53 53 52 52 51 50 50 48 48 48 48 47 47 48 49 50 51 51 52 52 52
43 43 44 44 45 45 44 43 44 45 45 45 44 42 41 41 41 42 43 45 46 47 48 49 49 49 50 50 51 51 52 53 54 54 54 54 53 52 52 51 50 49 48 46 46 47 48 48 47 46 45 44 46 47 48 49 49 48 48 48 49 49 50 51 52 53 53 52 52 52 52 52 51 50 50 49 49 49 50 51 52 52 53 53 54 54
44 44 44 45 45 46 46 46 46 47 47 46 45 44 44 43 43 43 44 45 46 47 48 49 49 49 50 50 50 50 51 51 52 52 53 52 52 52 51 51 51 50 49 48 47 48 49 49 50 50 48 48 48 47 48 50 51 51 50 50 49 49 49 48 48 50 51 52 52 52 52 53 53 52 51 51 51 52 52 53 54 54 55 54 54 53
45 45 46 46 47 48 48 48 49 49 49 48 48 47 47 45 44 44 44 45 47 47 48 49 49 49 49 49 48 48 48 48 48 48 48 49 49 50 49 49 49 49 49 50 49 49 50 50 51 52 52 52 52 52 52 53 54 53 52 52 51 50 50 49 48 49 52 54 54 53 53 54 55 55 56 57 57 57 57 57 56 55 54 53 53 52
43 43 44 44 45 46 47 47 48 48 48 47 47 46 44 43 42 42 44 46 47 47 48 49 48 48 48 48 47 47 47 47 47 46 46 46 47 47 48 48 47 46 47 49 50 51 52 52 52 53 53 54 54 55 56 58 59 59 58 58 58 57 56 56 55 55 57 58 58 57 58 59 59 59 59 59 59 58 58 57 56 55 54 54 53 52
38 38 39 39 40 40 41 42 42 43 44 44 45 44 41 39 40 42 43 44 45 45 46 47 46 47 47 46 46 46 45 46 46 47 47 47 46 46 48 49 48 47 47 47 48 49 52 54 55 56 56 56 56 57 57 58 59 61 61 62 63 63 63 63 63 63 64 64 63 62 62 62 62 62 61 59 57 57 56 56 55 55 55 54 52 51
35 35 35 35 36 36 37 39 41 42 43 44 45 44 43 42 43 44 44 43 43 44 45 45 46 46 46 46 46 46 46 46 47 47 49 49 50 50 51 52 53 53 53 52 51 51 53 55 56 57 58 59 59 59 60 60 60 60 61 62 63 64 64 65 65 66 67 67 65 64 63 63 63 62 61 59 59 58 57 56 55 54 53 52 50 49
34 35 35 36 36 37 38 40 42 44 45 46 46 46 45 46 46 45 45 44 44 45 46 46 47 48 49 50 50 51 51 51 50 51 51 52 53 53 53 53 53 54 54 55 55 55 55 55 56 56 58 59 59 59 59 60 60 60 61 61 62 62 63 63 64 64 64 64 63 63 62 62 61 60 60 59 59 58 56 55 54 53 52 51 49 48
35 36 37 38 38 39 40 42 43 44 46 47 47 48 48 48 48 47 46 46 46 47 48 49 50 51 53 54 55 55 54 54 54 54 54 54 54 55 55 54 54 54 55 56 56 56 57 57 57 57 58 59 60 60 60 60 60 60 61 61 61 61 62 63 63 63 62 62 61 60 60 59 59 59 58 59 58 57 56 55 54 53 52 51 50 49
32 33 35 36 37 38 40 42 44 45 46 47 49 49 48 48 49 49 48 48 49 49 50 51 52 53 54 55 56 56 56 56 56 56 56 56 56 56 57 57 56 57 57 58 58 58 58 58 58 58 58 58 59 60 61 61 61 60 60 60 60 60 61 61 62 63 63 62 61 59 58 57 57 58 58 59 58 57 56 55 55 54 53 52 51 50
27 28 30 32 34 35 37 39 41 42 43 45 46 46 47 47 48 48 48 49 49 50 50 51 51 52 54 55 56 56 57 57 57 57 57 57 56 56 56 56 56 56 57 57 57 57 57 57 58 58 58 58 57 58 58 59 60 60 60 60 60 60 60 60 61 61 62 62 61 61 60 59 58 58 58 59 58 57 56 56 55 54 53 52 50 48
25 27 28 29 31 32 33 35 37 38 40 41 42 43 44 45 45 46 47 47 47 48 48 49 50 51 52 53 54 55 55 55 55 55 55 55 55 54 54 54 54 54 54 55 56 56 56 56 56 56 56 56 56 56 56 57 57 58 58 58 58 58 59 59 59 60 60 61 61 60 60 59 58 57 57 57 57 56 56 55 55 54 53 52 50 47
23 24 25 26 27 28 29 31 33 35 37 39 40 41 41 42 43 44 44 45 46 47 47 48 49 50 51 52 53 53 53 54 54 54 53 53 53 53 53 53 52 52 53 53 54 54 54 54 53 53 53 53 53 54 55 55 56 57 57 57 57 57 57 57 58 58 58 58 59 59 58 58 57 56 55 55 55 55 55 55 54 53 52 52 50 48
21 22 23 24 25 26 27 29 31 33 36 38 39 40 41 41 41 42 43 45 46 47 48 49 50 51 52 53 54 54 55 54 54 54 54 53 53 53 52 52 52 52 52 53 53 53 53 53 52 52 52 52 52 53 54 54 55 56 57 57 57 57 56 56 56 56 55 55 56 56 56 56 56 55 54 53 53 52 52 52 52 51 51 51 50 49
22 23 23 24 25 26 28 29 31 33 35 37 38 39 40 41 42 43 44 45 46 47 48 49 50 51 51 52 53 54 54 54 53 54 54 53 53 53 52 52 52 52 52 52 52 52 52 52 52 52 51 52 52 52 53 53 54 55 56 57 57 57 56 55 54 53 53 53 54 54 54 54 55 55 54 53 52 50 50 50 50 49 49 49 49 48
Wind_Direction
225 223 220 217 217 217 219 221 225 230 219 197 192 191 184 181 210 232 226 220 221 220 195 164 181 216 248 246 244 247 252 261 268 272 276 281 284 286 291 290 271 259 252 249 253 259 264 268 269 271 271 265 263 270 281 291 296 301 306 306 304 297 288 282 283 281 276 275 276 279 282 287 294 294 292 290 288 289 286 281 275 273 271 266 262 258
223 226 225 220 218 219 227 231 230 230 214 194 187 185 180 181 220 231 202 191 211 199 194 188 194 225 248 249 250 250 250 257 261 268 275 279 282 285 289 285 278 269 258 257 259 260 262 263 263 263 263 264 270 276 284 290 292 296 299 298 296 292 284 280 282 282 280 278 278 279 283 289 294 296 297 293 288 286 284 282 275 271 272 272 271 266
220 224 227 222 215 211 221 235 239 231 215 199 190 183 177 181 210 216 182 180 195 185 200 218 220 246 251 238 238 246 252 255 253 258 269 275 280 286 291 290 289 280 267 264 261 260 259 257 258 259 261 267 272 276 279 282 286 290 291 290 287 280 276 279 281 282 280 276 276 279 284 289 291 295 298 297 294 288 285 283 278 273 271 272 274 274
221 222 224 221 214 209 214 225 233 228 218 209 194 180 176 183 195 194 180 185 196 194 207 226 232 240 232 226 235 247 253 252 249 254 265 273 278 284 289 291 292 285 273 269 263 260 261 260 260 259 262 268 270 269 271 274 278 282 282 281 278 274 273 277 279 281 278 271 272 277 281 286 290 293 296 298 299 297 292 287 281 276 271 269 271 274
222 220 219 218 217 217 219 223 225 221 215 214 198 181 178 188 192 193 191 195 203 207 213 218 219 216 208 212 229 247 255 253 251 259 269 274 276 279 283 287 291 289 285 278 264 259 262 261 259 258 259 260 261 262 264 266 269 271 273 273 274 275 275 275 276 279 279 273 268 273 278 283 288 291 293 295 296 295 292 289 284 278 273 269 268 270
227 224 219 213 215 220 223 226 227 223 217 214 202 186 183 195 201 204 206 209 212 214 218 219 217 212 205 211 224 238 249 251 251 260 268 270 270 274 278 280 285 288 288 281 263 255 257 255 254 251 250 251 253 255 256 259 262 264 265 267 269 272 273 273 271 274 280 279 270 268 274 282 288 291 292 292 291 289 288 289 287 282 277 273 269 268
228 230 226 216 215 220 224 226 226 226 221 215 205 193 191 201 208 212 215 219 222 222 226 229 227 222 215 219 228 233 239 244 247 254 260 261 263 267 271 276 282 282 280 277 265 257 257 259 259 254 248 248 249 250 253 256 259 260 263 266 267 268 270 272 271 271 276 278 274 269 271 280 290 294 295 293 290 291 294 293 289 283 279 277 274 271
223 228 230 224 222 227 231 233 231 227 223 218 209 197 197 205 211 215 221 224 227 230 234 238 240 238 228 222 225 227 231 239 245 248 252 255 258 263 268 274 279 276 275 279 277 277 277 276 274 264 252 246 247 249 251 253 253 256 259 263 265 265 267 271 274 274 272 273 274 273 271 278 290 295 297 297 298 302 304 300 294 286 281 278 276 275
227 228 231 229 230 237 240 242 238 230 222 217 212 201 199 204 208 214 222 228 233 237 240 244 249 248 239 226 221 221 225 235 244 248 251 254 257 261 266 271 274 275 276 280 286 293 297 291 281 271 262 256 255 252 251 252 253 257 260 262 261 262 268 275 280 279 272 269 273 277 275 278 288 296 298 301 307 310 308 303 297 290 285 280 278 279
235 232 232 230 235 242 244 249 247 235 223 215 213 209 204 205 208 215 223 231 237 241 242 248 256 253 245 232 220 220 225 232 240 247 250 254 257 259 263 267 271 274 276 280 287 293 299 299 291 283 279 277 271 262 256 256 258 262 264 264 262 264 273 280 284 282 271 266 275 283 283 279 283 292 298 302 308 309 306 302 296 291 288 285 284 285
233 231 232 232 236 243 248 255 255 242 230 222 219 218 214 211 212 218 225 231 238 242 244 249 256 258 255 244 229 227 230 231 235 240 244 249 253 257 261 265 267 271 274 280 285 282 279 283 285 285 283 281 278 272 266 263 263 265 269 272 272 272 275 279 282 281 272 267 273 281 285 283 279 289 299 301 303 305 302 299 296 293 290 289 290 292
228 228 230 234 238 244 247 248 250 246 237 232 230 228 225 221 220 222 226 231 237 242 245 247 251 256 259 253 240 231 229 228 232 236 239 244 251 256 259 263 265 267 272 277 277 266 258 260 270 279 280 278 277 276 274 270 268 269 272 275 276 274 272 272 275 278 276 272 273 279 284 286 280 284 297 298 298 301 298 294 293 291 290 291 294 299
221 224 230 233 234 241 246 242 239 239 237 239 244 241 235 231 230 230 231 234 238 240 241 242 244 249 253 251 243 235 230 226 228 235 240 244 250 256 259 261 262 264 269 273 266 258 256 259 265 269 273 277 280 282 280 277 275 274 275 276 276 274 269 267 267 271 275 276 277 279 282 284 283 280 289 295 295 296 293 289 287 287 286 289 297 304
217 220 232 235 234 240 247 243 236 234 234 238 244 244 238 236 237 240 244 246 246 244 241 239 240 244 248 250 247 241 238 233 231 237 243 245 249 254 258 258 259 262 268 269 263 266 272 271 266 266 273 278 282 283 282 281 280 278 279 278 275 270 265 262 261 264 269 275 283 285 281 280 281 279 280 287 290 291 288 284 284 284 282 284 294 304
223 224 235 242 243 244 242 240 239 238 236 234 235 234 233 235 237 242 247 250 251 250 247 243 242 243 244 248 245 239 239 239 239 241 243 247 250 251 251 252 255 259 264 265 264 268 273 274 273 275 279 280 281 281 280 281 279 278 280 278 273 266 259 257 259 262 267 273 279 284 283 279 278 276 274 279 283 283 280 279 280 280 278 279 285 295
227 229 232 234 237 239 237 237 239 237 231 229 231 235 237 236 236 238 242 244 245 246 247 245 245 244 241 243 244 241 238 239 240 237 237 241 244 245 246 248 250 254 261 264 263 265 269 272 275 277 278 279 280 281 280 280 279 279 279 277 273 265 257 263 270 268 271 275 274 277 281 279 275 271 271 277 280 276 272 273 275 275 275 275 279 286
227 226 226 226 225 226 227 229 233 228 218 220 229 236 239 237 236 239 243 246 244 244 246 245 244 243 239 237 241 241 239 240 241 236 233 236 237 238 243 247 250 253 259 262 262 264 264 265 269 273 275 275 277 278 279 279 280 281 281 279 277 270 263 270 280 277 277 279 277 275 274 273 271 271 272 276 279 271 265 268 272 274 276 274 276 279
225 217 219 220 209 202 206 202 206 221 215 212 220 236 241 240 239 239 241 248 250 246 245 242 239 239 237 234 235 235 235 238 241 238 240 247 248 245 247 252 255 257 260 261 263 264 263 264 268 272 273 271 270 272 274 276 278 280 282 282 283 279 272 272 279 283 283 281 279 277 271 267 272 276 275 276 278 270 262 265 270 274 278 277 276 276
228 208 208 218 212 204 203 192 191 219 220 210 208 225 236 237 243 248 250 253 252 245 241 239 238 238 237 237 238 238 238 238 240 242 246 252 254 253 252 254 257 259 260 260 262 264 264 265 267 269 268 266 264 266 269 275 277 279 281 282 281 279 277 277 280 284 284 277 273 278 276 269 272 279 278 276 275 269 261 262 266 273 279 280 279 278
232 210 203 215 216 212 212 203 197 210 218 216 214 223 231 233 240 251 256 257 251 242 237 235 238 238 235 238 241 242 243 242 241 242 244 243 243 248 252 254 254 254 254 255 256 259 262 263 263 264 263 263 265 269 271 275 277 278 280 281 280 277 277 281 281 282 282 274 268 274 279 275 275 279 278 271 267 265 261 261 264 271 280 285 285 283
232 219 208 212 212 209 213 211 209 214 220 220 219 224 230 233 236 240 245 250 249 244 240 237 238 240 238 238 240 242 244 244 241 241 243 242 241 246 250 247 246 247 246 245 245 247 250 254 258 261 264 267 270 272 273 274 275 277 279 282 284 283 283 284 281 282 286 281 273 275 280 280 278 280 276 263 253 251 256 264 267 267 272 278 282 283
232 223 212 212 209 204 208 213 215 221 229 230 224 220 225 230 233 235 237 243 247 248 249 249 247 248 247 243 242 243 245 246 243 241 244 247 249 253 248 238 239 242 240 239 243 244 242 248 259 265 268 271 273 274 275 275 275 277 280 283 285 286 288 289 288 289 291 288 285 284 282 279 277 277 274 263 253 252 258 267 267 261 263 265 268 272
230 226 218 215 212 209 212 218 221 223 231 236 228 221 223 226 231 235 236 242 247 249 253 255 253 252 253 251 248 247 248 251 251 248 250 253 256 258 254 246 246 246 241 242 252 252 246 251 263 268 269 272 274 275 276 277 278 280 282 285 286 286 287 288 289 291 292 289 287 286 284 279 273 272 272 271 267 263 263 265 263 259 261 262 262 265
229 229 225 217 215 216 216 217 221 223 226 228 226 227 229 228 232 237 240 243 245 245 250 254 252 249 251 252 252 252 253 255 258 259 260 259 258 257 257 255 255 255 253 255 260 257 252 255 265 270 272 276 277 276 276 276 279 281 283 284 285 286 286 286 287 287 287 286 284 284 284 281 276 272 270 271 269 263 259 260 258 256 258 260 261 262
227 227 225 220 218 219 216 215 221 226 224 222 225 231 234 236 240 243 244 245 245 245 251 254 251 248 250 252 253 255 257 257 259 262 265 265 264 264 264 263 262 265 266 266 264 258 254 257 265 269 273 277 278 278 278 277 277 279 280 282 283 284 284 285 286 287 287 286 283 282 283 283 282 275 268 268 267 264 263 261 256 257 262 266 267 265
226 225 227 230 229 223 219 220 224 226 225 226 230 233 237 243 248 247 245 245 246 248 252 254 254 254 256 259 260 260 260 261 262 264 265 265 266 267 267 267 267 269 269 266 263 262 262 265 268 270 274 277 278 278 279 278 277 278 279 281 283 284 284 285 286 288 291 291 288 287 286 282 276 268 265 272 274 272 270 267 265 266 269 271 273 272
234 234 234 236 233 227 226 229 227 223 225 230 236 239 241 245 248 249 248 247 248 252 255 257 257 257 257 260 263 265 264 264 264 265 266 266 266 268 269 270 272 272 270 266 265 268 271 272 272 272 273 274 275 276 277 277 277 277 279 281 282 283 283 284 285 288 291 291 288 287 285 279 273 269 270 274 276 273 269 267 267 268 268 272 275 276
237 239 239 238 236 233 233 235 233 229 230 233 238 242 246 248 249 251 252 252 253 256 257 256 255 254 254 258 264 267 267 266 266 266 267 268 270 273 275 276 276 274 272 270 270 272 273 273 273 275 274 273 274 275 275 275 275 276 277 277 278 280 280 281 282 284 286 285 281 278 276 275 276 277 276 275 274 275 273 271 269 269 271 276 278 277
237 238 240 241 242 242 242 242 240 238 241 244 245 245 247 249 251 253 254 254 255 256 254 254 256 258 260 264 267 269 269 269 269 269 270 271 272 274 276 277 276 275 274 273 273 274 274 272 272 272 272 272 273 273 274 275 276 275 275 275 276 277 278 278 279 279 280 280 279 277 276 276 278 280 280 278 276 277 277 276 274 274 276 279 279 279
244 244 246 247 249 252 254 253 249 245 246 249 250 248 248 248 249 249 251 252 253 254 255 257 261 263 266 267 268 269 270 270 271 271 273 275 275 275 275 275 274 274 273 272 273 273 271 270 270 270 269 269 269 270 272 275 275 275 275 275 276 277 277 277 278 277 277 277 277 277 277 278 278 279 279 278 277 276 275 275 275 275 276 278 279 279
252 252 252 253 255 256 256 256 255 252 249 248 248 248 249 248 247 246 248 249 251 253 255 258 260 263 266 268 269 269 270 271 272 273 274 275 276 277 277 276 276 275 274 273 274 271 268 269 270 270 270 269 268 269 270 270 272 273 274 274 274 274 274 273 274 274 275 275 275 275 275 276 275 274 274 274 273 273 272 272 273 274 275 276 277 278
259 258 257 256 257 258 257 255 255 254 253 252 250 250 250 250 249 248 249 250 251 253 255 257 259 260 263 265 267 268 270 271 271 272 272 272 273 274 276 276 277 277 275 274 273 271 270 271 271 271 271 270 270 270 269 266 267 269 269 270 269 269 269 270 272 273 273 274 273 273 274 273 272 272 272 274 274 273 272 272 272 274 275 276 277 277
262 262 262 261 260 259 258 257 257 257 258 258 256 254 253 254 253 252 253 253 253 254 255 256 258 260 261 262 263 265 267 269 270 271 270 270 270 271 272 273 274 274 275 274 273 271 271 272 272 272 272 272 272 272 268 265 265 265 265 264 265 266 269 271 272 272 271 271 271 271 272 271 271 271 274 276 278 276 274 272 273 274 275 276 276 277
266 266 267 266 266 266 265 263 263 262 262 262 262 261 260 259 259 258 257 256 255 255 256 257 258 259 260 261 261 262 264 266 267 268 269 270 270 269 268 268 269 270 271 272 271 271 272 273 273 272 272 272 272 271 268 265 264 263 262 263 264 267 270 270 269 269 268 268 268 269 269 269 269 270 272 275 275 274 272 270 270 271 272 274 276 277
266 266 267 267 267 268 268 267 267 265 264 265 265 264 263 262 261 259 258 257 257 257 258 258 259 260 260 261 261 261 262 262 263 264 266 267 269 269 268 268 267 268 269 270 270 270 270 271 271 271 271 270 267 266 266 265 264 264 264 263 264 266 266 265 265 266 267 268 268 269 269 269 269 269 270 271 271 271 270 269 269 271 273 276 277 277
261 262 263 264 265 265 266 267 267 267 265 263 262 262 262 261 260 259 258 258 258 259 258 258 258 259 260 261 262 262 261 262 263 265 266 268 269 269 269 269 268 267 268 269 269 269 266 265 265 265 266 265 262 262 263 265 265 266 265 263 262 262 261 261 262 264 266 267 269 269 270 269 269 269 269 268 268 268 268 268 271 273 275 277 277 277
258 260 261 262 263 263 263 265 266 266 265 264 262 262 262 263 263 262 261 261 261 261 260 259 258 258 259 260 262 263 264 265 267 268 269 269 269 270 270 270 269 269 267 266 265 266 266 265 264 263 261 260 260 262 264 265 265 265 264 263 262 261 261 262 263 264 265 265 266 266 267 267 268 268 268 268 267 267 268 269 271 272 274 276 276 276
257 259 261 262 262 262 262 262 263 264 264 265 265 265 264 265 265 265 264 264 264 264 263 261 260 259 259 260 261 263 264 266 267 268 268 268 268 268 268 269 269 268 267 264 261 261 262 262 262 261 259 258 259 261 263 264 264 263 262 262 263 263 263 264 264 264 264 264 263 263 263 264 265 266 267 267 267 268 269 269 270 271 273 274 274 275
257 258 259 260 262 263 264 264 264 265 265 265 265 266 265 265 265 265 265 264 264 265 264 264 263 263 262 262 261 262 263 263 264 265 266 267 267 267 267 267 266 266 265 264 262 260 259 258 258 257 256 254 254 256 258 260 261 261 261 262 263 264 265 265 265 266 265 264 262 262 262 262 262 264 265 266 267 269 269 269 270 272 273 273 272 272
258 258 259 259 260 262 263 264 265 266 267 267 266 266 266 265 265 264 262 262 262 263 263 264 265 264 264 263 261 261 261 261 261 262 263 265 266 267 267 266 266 264 263 262 261 260 259 259 258 257 256 254 252 251 253 255 256 257 257 258 258 259 259 259 260 261 262 262 262 262 263 263 262 263 266 268 270 270 271 271 271 272 273 272 271 270
259 259 259 260 261 262 263 264 265 266 267 267 267 266 266 266 265 262 260 261 262 262 263 263 263 263 263 263 262 261 260 260 261 261 261 262 262 263 263 264 264 264 264 263 262 261 260 260 259 258 258 257 255 253 253 254 254 254 254 254 254 254 254 253 253 254 256 259 261 263 264 264 264 266 267 269 270 270 271 271 271 271 271 271 271 270
257 258 258 259 260 260 260 261 262 264 265 266 265 265 264 264 263 262 262 263 262 262 262 262 262 263 263 263 263 263 262 261 261 260 259 259 259 259 259 260 261 262 262 263 262 261 260 259 259 259 258 258 258 257 256 256 256 257 257 256 256 256 255 255 254 254 254 256 259 261 263 265 267 268 269 269 269 269 270 270 270 270 270 270 270 269
252 252 252 253 254 253 253 253 254 256 258 260 262 264 264 263 263 264 265 265 264 263 264 264 264 265 265 265 265 264 264 262 261 260 259 258 258 258 258 258 259 259 260 260 260 260 260 260 259 259 259 258 257 257 257 257 257 257 258 258 258 258 258 258 258 258 259 260 261 262 264 266 268 269 269 269 269 269 269 269 269 269 269 269 269 268
251 249 247 246 245 244 244 247 250 253 256 258 261 263 263 263 264 265 267 268 268 268 268 268 267 266 265 265 265 265 264 263 261 260 259 259 260 259 259 260 260 261 262 262 261 262 262 262 261 261 261 260 259 258 257 257 257 257 257 258 258 259 260 260 261 261 263 264 265 266 267 268 269 269 269 269 269 269 268 269 269 268 268 268 267 266
252 251 249 248 246 244 243 245 247 250 254 257 260 262 263 264 266 267 269 270 271 271 271 270 269 268 267 267 267 266 265 264 264 263 263 263 262 262 261 262 263 263 263 263 263 263 263 263 262 262 262 262 263 262 261 260 259 258 258 258 258 259 260 261 261 261 261 262 264 265 266 267 267 267 267 267 267 267 267 268 268 268 268 267 266 266
255 256 256 255 253 251 250 250 251 251 253 256 260 263 266 268 270 270 271 271 270 269 269 269 269 270 270 270 270 269 269 269 268 268 268 267 265 264 263 263 264 263 263 263 264 264 264 264 263 262 262 262 262 263 263 263 262 261 261 260 260 260 260 260 260 261 260 260 260 261 261 262 263 264 265 266 266 267 267 267 267 267 267 267 266 266
256 257 258 257 257 256 256 257 258 259 260 261 263 266 268 269 269 269 268 268 268 268 269 269 270 270 269 269 269 270 271 271 271 271 271 270 269 268 267 267 266 265 264 264 264 263 263 262 262 263 262 262 262 262 262 262 263 263 262 262 261 261 260 260 260 260 260 260 259 259 258 259 260 261 263 264 265 266 266 266 266 266 267 267 267 267
257 257 257 258 259 260 260 262 264 265 265 265 265 265 266 267 267 268 268 269 270 270 271 271 271 271 270 270 271 271 271 272 272 271 271 271 270 270 269 268 267 266 266 265 264 264 263 262 261 261 261 261 262 262 261 261 261 262 262 261 261 261 260 260 260 260 260 260 260 259 259 258 258 258 260 261 262 264 265 265 266 267 268 268 268 267
262 261 261 262 263 263 263 263 264 265 266 267 267 268 268 268 270 271 272 273 273 273 273 273 272 272 273 273 273 274 274 273 273 273 272 271 271 270 269 268 268 267 266 266 265 264 264 263 263 262 262 261 261 261 261 261 261 261 261 261 260 260 259 259 259 259 259 260 261 261 261 261 260 259 258 258 258 259 261 262 264 265 266 267 267 266
270 270 270 269 269 270 269 268 268 268 269 270 271 271 272 273 273 273 273 273 273 274 274 274 274 275 275 276 276 276 276 275 275 275 274 273 273 272 271 270 269 269 268 267 267 266 265 265 264 263 263 262 261 260 260 260 260 261 261 262 262 261 260 259 259 259 259 259 260 260 261 262 262 262 260 259 258 257 257 258 260 261 262 263 264 265
275 276 276 275 273 272 271 270 270 270 270 271 272 273 274 275 275 275 275 274 274 274 274 274 275 275 276 276 276 276 276 276 276 275 275 274 274 273 272 271 270 269 269 268 267 267 266 266 265 264 264 263 262 261 261 260 260 260 261 262 262 262 262 262 261 260 260 259 259 259 259 260 261 261 261 261 259 258 258 258 258 258 259 260 261 262
Height
5741 5741 5742 5742 5743 5744 5745 5746 5747 5748 5750 5751 5752 5751 5752 5753 5754 5755 5755 5755 5756 5758 5758 5759 5760 5760 5760 5760 5760 5761 5762 5764 5766 5767 5768 5768 5767 5768 5769 5769 5769 5769 5769 5770 5770 5771 5771 5772 5772 5773 5774 5774 5774 5774 5774 5775 5775 5774 5774 5775 5775 5776 5777 5778 5778 5779 5779 5778 5777 5777 5776 5776 5775 5775 5775 5776 5776 5775 5776 5776 5776 5776 5777 5777 5778 5778
5739 5739 5740 5741 5741 5742 5743 5744 5745 5746 5748 5750 5750 5750 5750 5751 5752 5753 5754 5754 5755 5756 5757 5759 5760 5761 5760 5760 5759 5759 5760 5762 5764 5765 5766 5765 5765 5765 5767 5767 5768 5768 5768 5768 5768 5769 5769 5770 5771 5772 5773 5773 5773 5773 5773 5773 5773 5773 5773 5773 5774 5774 5775 5776 5776 5777 5776 5776 5775 5774 5774 5773 5773 5773 5773 5773 5773 5773 5773 5773 5773 5774 5774 5774 5775 5776
5737 5737 5738 5739 5739 5740 5742 5742 5744 5745 5746 5747 5748 5748 5749 5749 5751 5752 5752 5753 5754 5754 5756 5758 5760 5761 5761 5760 5759 5759 5760 5761 5763 5763 5763 5763 5763 5763 5764 5764 5766 5767 5767 5767 5767 5768 5768 5769 5770 5771 5770 5770 5770 5770 5771 5771 5772 5771 5772 5772 5772 5773 5774 5774 5775 5776 5775 5775 5773 5773 5772 5771 5771 5770 5770 5770 5770 5771 5771 5771 5771 5771 5771 5772 5772 5772
5734 5735 5736 5737 5738 5738 5739 5740 5742 5743 5743 5745 5746 5747 5747 5748 5749 5750 5750 5751 5752 5753 5754 5756 5758 5760 5759 5759 5759 5758 5759 5760 5760 5761 5761 5761 5761 5761 5761 5761 5763 5765 5766 5767 5767 5767 5767 5767 5767 5767 5767 5767 5767 5768 5769 5770 5770 5770 5770 5770 5770 5772 5773 5773 5774 5774 5775 5774 5773 5771 5771 5770 5769 5768 5768 5768 5767 5768 5768 5768 5768 5768 5769 5769 5769 5769
5732 5733 5734 5735 5736 5736 5737 5738 5739 5741 5742 5743 5744 5745 5746 5746 5747 5748 5747 5747 5748 5749 5751 5753 5755 5757 5758 5759 5758 5757 5757 5757 5758 5758 5759 5759 5759 5759 5759 5760 5760 5761 5763 5764 5764 5764 5765 5764 5764 5764 5764 5765 5766 5767 5768 5768 5768 5768 5768 5768 5769 5770 5771 5771 5772 5773 5773 5773 5772 5770 5770 5769 5767 5767 5766 5766 5766 5766 5766 5766 5766 5766 5766 5767 5767 5767
5730 5730 5731 5733 5734 5735 5735 5736 5737 5739 5740 5741 5742 5744 5744 5744 5745 5745 5745 5745 5745 5746 5748 5750 5752 5754 5756 5757 5757 5755 5754 5755 5755 5756 5757 5757 5757 5757 5758 5758 5759 5759 5760 5760 5761 5762 5762 5763 5763 5763 5764 5764 5765 5765 5766 5766 5766 5766 5766 5766 5767 5768 5769 5769 5769 5770 5771 5772 5771 5770 5768 5767 5766 5765 5764 5764 5764 5764 5764 5764 5764 5764 5764 5764 5765 5765
5728 5728 5729 5730 5731 5732 5733 5734 5735 5736 5737 5738 5740 5742 5743 5742 5742 5743 5743 5744 5744 5744 5745 5747 5749 5752 5754 5755 5755 5754 5753 5753 5753 5754 5755 5755 5755 5755 5755 5757 5757 5758 5758 5758 5758 5759 5760 5762 5762 5763 5764 5764 5764 5764 5764 5764 5764 5764 5765 5765 5766 5767 5767 5767 5767 5767 5768 5769 5770 5769 5767 5766 5764 5763 5762 5762 5761 5761 5762 5762 5762 5762 5762 5762 5762 5763
5726 5726 5726 5728 5729 5729 5730 5732 5733 5733 5734 5736 5738 5740 5740 5740 5740 5741 5741 5742 5742 5742 5743 5744 5747 5749 5751 5753 5753 5752 5751 5751 5751 5752 5752 5752 5753 5753 5753 5755 5755 5755 5756 5756 5756 5757 5758 5760 5762 5762 5763 5763 5763 5763 5763 5763 5763 5763 5763 5763 5764 5765 5765 5765 5764 5765 5765 5766 5767 5767 5765 5764 5762 5761 5760 5760 5759 5759 5759 5759 5760 5760 5760 5760 5760 5760
5723 5723 5724 5725 5726 5726 5728 5729 5730 5730 5732 5734 5734 5736 5737 5737 5739 5739 5739 5739 5739 5740 5742 5742 5744 5746 5747 5749 5749 5749 5749 5749 5748 5748 5749 5749 5750 5750 5751 5752 5753 5753 5753 5753 5754 5755 5756 5757 5759 5760 5760 5760 5761 5761 5761 5761 5761 5761 5762 5762 5762 5763 5763 5762 5762 5762 5762 5762 5763 5764 5763 5761 5759 5758 5758 5757 5757 5757 5757 5757 5757 5757 5758 5758 5758 5758
5721 5721 5721 5723 5724 5725 5726 5727 5728 5728 5729 5730 5731 5732 5734 5735 5736 5736 5737 5737 5736 5738 5740 5740 5741 5742 5743 5745 5747 5747 5748 5748 5746 5746 5746 5746 5747 5748 5749 5750 5750 5750 5751 5752 5753 5754 5754 5754 5755 5756 5756 5757 5758 5759 5759 5759 5759 5759 5759 5759 5760 5759 5759 5759 5758 5758 5758 5759 5759 5760 5760 5758 5757 5756 5755 5755 5755 5755 5755 5755 5755 5755 5756 5756 5756 5756
5718 5718 5719 5720 5722 5723 5725 5725 5725 5726 5727 5728 5728 5729 5731 5733 5734 5734 5735 5735 5735 5736 5737 5738 5738 5738 5739 5742 5744 5745 5745 5745 5744 5744 5744 5745 5745 5746 5746 5747 5748 5748 5749 5751 5752 5752 5752 5752 5752 5752 5752 5753 5754 5755 5756 5757 5757 5756 5756 5756 5756 5756 5755 5755 5754 5754 5755 5755 5755 5755 5756 5756 5755 5754 5753 5753 5753 5753 5753 5754 5754 5754 5754 5754 5754 5754
5716 5717 5717 5719 5720 5721 5722 5723 5723 5724 5725 5726 5727 5727 5728 5730 5732 5732 5733 5733 5733 5734 5735 5736 5736 5735 5736 5738 5740 5741 5741 5741 5741 5740 5742 5743 5743 5743 5744 5744 5745 5746 5747 5749 5750 5750 5750 5751 5750 5749 5749 5750 5751 5752 5753 5754 5755 5754 5754 5753 5752 5752 5751 5751 5750 5751 5751 5751 5751 5752 5753 5754 5754 5753 5752 5752 5752 5752 5752 5752 5752 5752 5752 5752 5752 5752
5715 5715 5716 5717 5718 5719 5720 5721 5721 5722 5723 5724 5725 5725 5726 5727 5728 5729 5729 5730 5730 5731 5732 5732 5732 5733 5733 5735 5736 5737 5737 5737 5736 5737 5739 5740 5741 5741 5741 5742 5743 5744 5745 5747 5748 5748 5748 5748 5748 5748 5747 5748 5748 5749 5750 5752 5752 5752 5752 5751 5749 5747 5746 5746 5746 5747 5747 5748 5749 5749 5750 5752 5752 5751 5750 5750 5750 5751 5751 5751 5751 5751 5751 5751 5751 5751
5713 5713 5714 5715 5716 5717 5719 5719 5719 5720 5721 5722 5723 5723 5723 5724 5724 5725 5726 5726 5727 5727 5728 5729 5730 5731 5731 5731 5733 5734 5734 5733 5733 5734 5736 5737 5738 5739 5739 5739 5740 5741 5742 5744 5744 5744 5745 5746 5746 5746 5746 5746 5746 5746 5747 5748 5749 5750 5749 5747 5743 5739 5739 5741 5742 5743 5743 5745 5746 5747 5748 5748 5749 5749 5748 5747 5748 5749 5749 5749 5749 5749 5749 5749 5749 5749
5710 5711 5712 5714 5715 5715 5717 5717 5717 5717 5718 5719 5720 5720 5720 5721 5722 5723 5723 5724 5724 5725 5725 5727 5728 5728 5729 5729 5729 5731 5730 5729 5731 5732 5733 5734 5735 5736 5736 5736 5737 5738 5739 5740 5740 5741 5742 5743 5744 5744 5744 5744 5743 5743 5744 5745 5746 5746 5746 5743 5740 5738 5738 5739 5740 5740 5741 5743 5744 5744 5745 5745 5746 5746 5746 5745 5745 5746 5747 5747 5747 5747 5748 5747 5747 5748
5707 5709 5711 5712 5712 5712 5714 5715 5715 5715 5716 5716 5717 5718 5718 5719 5720 5720 5720 5721 5721 5722 5722 5724 5725 5726 5727 5726 5725 5727 5727 5726 5728 5729 5730 5731 5731 5732 5734 5734 5734 5735 5736 5736 5737 5738 5739 5740 5741 5742 5742 5741 5740 5741 5741 5742 5742 5742 5742 5741 5741 5742 5743 5742 5742 5740 5739 5740 5741 5741 5742 5742 5742 5744 5744 5743 5743 5743 5744 5744 5745 5745 5746 5746 5746 5746
5705 5707 5709 5709 5709 5710 5712 5713 5713 5713 5713 5714 5715 5715 5716 5716 5717 5717 5717 5718 5718 5719 5720 5722 5722 5723 5724 5724 5723 5724 5724 5723 5724 5725 5727 5728 5728 5729 5731 5732 5732 5733 5733 5733 5734 5735 5736 5737 5738 5739 5739 5739 5738 5738 5739 5739 5739 5739 5739 5740 5739 5740 5742 5742 5741 5740 5737 5737 5739 5739 5739 5740 5740 5742 5742 5742 5741 5741 5741 5742 5742 5743 5743 5744 5744 5744
5703 5706 5706 5707 5708 5708 5709 5710 5711 5712 5712 5713 5714 5714 5713 5714 5714 5714 5715 5716 5716 5717 5718 5719 5719 5720 5721 5721 5721 5721 5720 5721 5722 5724 5725 5726 5726 5727 5728 5729 5730 5730 5730 5730 5730 5731 5732 5734 5735 5735 5736 5736 5736 5737 5737 5737 5737 5736 5736 5737 5737 5737 5738 5738 5737 5737 5735 5735 5737 5738 5738 5738 5739 5739 5740 5740 5740 5739 5739 5739 5740 5740 5741 5741 5742 5742
5701 5704 5704 5704 5705 5706 5706 5708 5709 5710 5710 5712 5713 5711 5711 5712 5712 5712 5713 5713 5714 5715 5716 5716 5716 5717 5717 5718 5718 5718 5718 5719 5721 5722 5723 5724 5725 5725 5726 5726 5727 5727 5727 5727 5727 5728 5729 5730 5732 5732 5733 5734 5734 5735 5735 5735 5734 5733 5732 5733 5734 5735 5734 5734 5734 5734 5733 5734 5735 5735 5736 5737 5737 5737 5738 5738 5738 5738 5738 5738 5738 5738 5738 5739 5740 5740
5698 5701 5702 5702 5703 5704 5705 5706 5706 5706 5706 5708 5709 5709 5709 5710 5710 5710 5711 5711 5711 5712 5713 5713 5713 5714 5714 5714 5715 5716 5716 5718 5720 5721 5721 5722 5723 5724 5725 5725 5725 5725 5725 5725 5726 5726 5727 5728 5729 5729 5730 5731 5732 5732 5733 5732 5731 5730 5729 5729 5731 5732 5732 5733 5732 5732 5732 5732 5732 5733 5734 5734 5735 5735 5735 5736 5736 5736 5736 5737 5737 5737 5737 5737 5737 5738
5694 5698 5700 5700 5702 5702 5702 5703 5703 5703 5703 5704 5707 5707 5707 5707 5708 5708 5709 5709 5709 5710 5710 5711 5711 5711 5711 5712 5712 5713 5714 5715 5717 5718 5719 5720 5721 5722 5723 5723 5723 5722 5723 5724 5725 5725 5725 5726 5726 5726 5726 5727 5728 5729 5729 5729 5728 5727 5726 5725 5726 5727 5728 5730 5730 5730 5731 5730 5730 5731 5731 5732 5732 5732 5732 5733 5733 5733 5734 5735 5735 5735 5735 5735 5735 5735
5691 5694 5698 5699 5700 5700 5700 5700 5701 5701 5702 5703 5704 5704 5704 5704 5705 5706 5706 5706 5707 5708 5708 5709 5710 5709 5709 5709 5710 5711 5712 5712 5714 5715 5716 5717 5718 5719 5720 5720 5720 5721 5722 5723 5723 5723 5724 5724 5723 5723 5723 5723 5723 5724 5725 5725 5724 5724 5723 5722 5722 5723 5724 5725 5726 5727 5727 5727 5726 5728 5729 5730 5730 5730 5730 5730 5730 5731 5731 5732 5733 5733 5733 5733 5733 5733
5688 5691 5694 5697 5698 5698 5698 5698 5698 5700 5701 5701 5701 5701 5701 5702 5702 5703 5704 5704 5705 5705 5705 5706 5707 5707 5706 5707 5708 5709 5710 5710 5711 5713 5713 5714 5715 5715 5716 5717 5718 5718 5719 5721 5721 5722 5722 5721 5721 5720 5719 5719 5719 5720 5720 5720 5720 5719 5719 5719 5718 5719 5719 5720 5722 5723 5723 5723 5723 5724 5726 5727 5727 5727 5726 5727 5727 5728 5729 5730 5730 5730 5730 5730 5731 5731
5685 5688 5691 5693 5695 5696 5696 5695 5695 5697 5699 5698 5698 5698 5698 5699 5699 5700 5701 5702 5703 5703 5703 5703 5704 5704 5703 5704 5705 5707 5708 5709 5709 5710 5711 5712 5712 5712 5713 5714 5715 5715 5716 5717 5718 5718 5718 5718 5718 5717 5716 5716 5716 5716 5717 5717 5716 5716 5715 5715 5715 5715 5715 5716 5717 5719 5720 5721 5722 5722 5722 5723 5723 5722 5721 5722 5723 5724 5725 5726 5726 5727 5727 5727 5728 5728
5682 5685 5687 5689 5692 5693 5694 5693 5693 5695 5696 5695 5695 5696 5695 5695 5696 5696 5697 5699 5699 5700 5700 5700 5701 5701 5700 5700 5702 5703 5705 5706 5707 5708 5708 5709 5709 5710 5710 5711 5712 5712 5713 5714 5714 5714 5715 5715 5715 5714 5714 5713 5713 5713 5713 5714 5714 5713 5712 5712 5712 5712 5712 5713 5713 5715 5717 5718 5719 5720 5719 5719 5718 5718 5718 5718 5719 5720 5721 5722 5723 5724 5724 5724 5724 5725
5679 5682 5683 5685 5688 5689 5690 5690 5691 5692 5693 5693 5693 5693 5693 5693 5693 5694 5694 5694 5695 5696 5696 5697 5697 5697 5697 5697 5697 5699 5702 5703 5703 5704 5704 5705 5706 5706 5707 5707 5708 5709 5710 5710 5710 5711 5712 5712 5712 5711 5711 5710 5710 5709 5709 5710 5710 5710 5709 5709 5709 5709 5709 5710 5710 5712 5713 5714 5714 5715 5715 5715 5714 5715 5715 5715 5717 5718 5719 5720 5720 5721 5721 5720 5720 5721
5676 5678 5680 5682 5684 5685 5685 5686 5687 5689 5690 5690 5690 5690 5689 5689 5690 5691 5691 5691 5692 5693 5693 5692 5693 5693 5692 5692 5692 5695 5698 5699 5698 5699 5700 5700 5701 5702 5703 5703 5704 5705 5706 5706 5707 5707 5708 5708 5708 5708 5708 5707 5706 5706 5706 5706 5706 5706 5706 5705 5704 5704 5705 5705 5706 5707 5708 5709 5711 5711 5712 5711 5710 5711 5712 5712 5714 5715 5715 5716 5717 5717 5716 5715 5716 5718
5673 5674 5676 5678 5679 5680 5681 5683 5684 5685 5686 5686 5686 5686 5685 5685 5686 5687 5688 5688 5689 5690 5689 5688 5688 5687 5688 5689 5689 5690 5693 5694 5694 5694 5695 5696 5697 5697 5698 5698 5699 5700 5701 5702 5703 5703 5704 5704 5704 5704 5704 5703 5703 5702 5702 5702 5702 5702 5702 5702 5701 5700 5700 5700 5702 5703 5704 5705 5707 5708 5709 5708 5706 5706 5708 5708 5709 5710 5710 5711 5712 5711 5711 5711 5712 5713
5671 5671 5673 5675 5675 5676 5678 5679 5680 5682 5682 5682 5683 5682 5682 5682 5683 5683 5683 5684 5685 5686 5685 5684 5684 5684 5685 5686 5686 5685 5687 5688 5689 5690 5690 5691 5692 5692 5693 5694 5694 5695 5696 5697 5698 5699 5700 5700 5700 5700 5700 5699 5699 5699 5698 5698 5698 5698 5698 5698 5697 5697 5697 5697 5697 5699 5701 5701 5701 5702 5703 5703 5702 5702 5702 5703 5703 5704 5705 5706 5706 5706 5707 5707 5708 5709
5668 5668 5670 5671 5672 5672 5673 5674 5675 5678 5679 5678 5678 5678 5679 5679 5679 5679 5679 5679 5680 5681 5680 5680 5681 5681 5681 5682 5681 5680 5681 5682 5684 5685 5685 5685 5686 5687 5688 5689 5689 5690 5691 5691 5692 5693 5694 5694 5695 5695 5695 5695 5694 5694 5694 5693 5693 5694 5693 5693 5693 5693 5693 5693 5693 5694 5696 5696 5697 5697 5697 5697 5697 5697 5697 5697 5698 5699 5700 5700 5701 5702 5702 5703 5703 5704
5663 5664 5665 5667 5667 5668 5669 5669 5670 5672 5674 5673 5673 5674 5676 5676 5675 5675 5675 5676 5676 5676 5676 5676 5677 5676 5676 5676 5675 5675 5675 5677 5678 5679 5680 5680 5680 5680 5681 5681 5682 5683 5684 5685 5685 5686 5687 5688 5688 5689 5689 5690 5690 5690 5690 5689 5689 5689 5689 5689 5689 5689 5689 5689 5689 5689 5691 5692 5692 5692 5692 5693 5693 5693 5693 5693 5693 5694 5694 5695 5696 5696 5697 5697 5698 5698
5656 5658 5660 5661 5662 5663 5663 5664 5665 5667 5667 5667 5668 5670 5671 5670 5669 5670 5671 5672 5672 5672 5672 5672 5672 5671 5671 5670 5670 5669 5670 5671 5672 5673 5674 5674 5675 5674 5674 5674 5675 5676 5677 5677 5678 5679 5679 5681 5681 5681 5682 5684 5685 5685 5685 5685 5684 5684 5684 5684 5684 5684 5684 5684 5685 5685 5686 5687 5687 5687 5687 5688 5688 5688 5688 5688 5688 5688 5688 5689 5690 5690 5691 5691 5692 5692
5649 5651 5653 5654 5656 5656 5657 5659 5660 5661 5661 5661 5662 5664 5663 5662 5663 5665 5666 5666 5666 5666 5667 5668 5667 5666 5665 5665 5665 5665 5665 5665 5665 5666 5667 5668 5669 5669 5669 5669 5669 5670 5670 5670 5671 5671 5672 5673 5674 5674 5675 5676 5677 5678 5679 5679 5679 5679 5679 5679 5678 5678 5679 5680 5680 5681 5681 5681 5681 5681 5682 5682 5683 5683 5683 5682 5682 5682 5682 5683 5684 5684 5685 5685 5686 5686
5643 5645 5646 5647 5648 5648 5649 5652 5653 5653 5654 5654 5655 5656 5656 5655 5656 5658 5659 5659 5659 5660 5661 5663 5663 5661 5660 5659 5659 5660 5660 5660 5659 5659 5660 5661 5662 5663 5664 5664 5664 5664 5663 5663 5664 5665 5666 5667 5667 5667 5667 5668 5669 5669 5670 5671 5672 5672 5673 5673 5673 5673 5674 5674 5675 5675 5675 5675 5675 5676 5676 5677 5677 5677 5678 5678 5678 5677 5677 5678 5678 5679 5679 5680 5680 5681
5638 5639 5640 5640 5641 5641 5642 5644 5645 5645 5647 5648 5648 5648 5648 5648 5650 5651 5651 5652 5652 5654 5656 5657 5657 5656 5654 5653 5653 5654 5655 5655 5654 5654 5654 5655 5656 5657 5657 5658 5658 5659 5658 5657 5659 5661 5662 5662 5661 5660 5661 5661 5661 5662 5662 5663 5664 5665 5667 5667 5667 5667 5667 5667 5668 5668 5668 5668 5669 5669 5670 5670 5671 5672 5672 5672 5672 5672 5672 5673 5673 5673 5674 5674 5674 5675
5633 5634 5634 5635 5636 5636 5637 5638 5638 5638 5640 5642 5642 5642 5642 5642 5643 5644 5645 5645 5646 5647 5649 5650 5650 5650 5648 5646 5647 5648 5649 5649 5649 5648 5648 5648 5649 5649 5649 5650 5652 5653 5652 5652 5652 5654 5655 5656 5655 5656 5656 5656 5655 5655 5656 5656 5657 5658 5659 5660 5660 5661 5661 5661 5661 5661 5661 5662 5662 5663 5663 5663 5664 5665 5666 5666 5666 5667 5667 5667 5667 5667 5668 5668 5668 5668
5627 5628 5628 5629 5630 5630 5632 5633 5632 5631 5632 5634 5636 5637 5637 5637 5637 5638 5638 5638 5639 5639 5641 5642 5643 5643 5642 5641 5641 5641 5642 5642 5641 5641 5640 5640 5640 5641 5641 5642 5643 5645 5646 5646 5646 5646 5646 5647 5648 5649 5650 5650 5649 5649 5649 5650 5650 5650 5651 5651 5653 5654 5654 5654 5654 5654 5654 5655 5655 5656 5656 5657 5658 5658 5659 5659 5659 5660 5661 5661 5661 5661 5662 5662 5662 5662
5623 5623 5623 5623 5624 5624 5626 5627 5626 5625 5626 5628 5630 5631 5632 5632 5631 5631 5631 5631 5631 5631 5632 5634 5635 5635 5635 5635 5635 5635 5634 5634 5634 5633 5632 5632 5632 5633 5634 5634 5635 5636 5638 5639 5640 5639 5639 5639 5640 5641 5642 5643 5643 5643 5643 5643 5642 5643 5643 5644 5645 5646 5646 5646 5646 5646 5647 5647 5648 5649 5649 5650 5651 5651 5652 5653 5653 5653 5654 5654 5655 5655 5655 5656 5655 5655
5618 5618 5619 5618 5618 5618 5619 5620 5620 5619 5620 5623 5624 5625 5626 5626 5625 5625 5624 5624 5624 5624 5624 5625 5626 5627 5627 5628 5628 5628 5627 5627 5627 5627 5626 5625 5625 5626 5626 5627 5627 5628 5629 5630 5631 5631 5631 5631 5632 5632 5634 5635 5636 5637 5637 5636 5635 5635 5635 5636 5637 5639 5639 5640 5640 5639 5639 5639 5640 5641 5642 5643 5644 5644 5645 5646 5646 5647 5647 5648 5648 5648 5648 5648 5648 5648
5612 5613 5613 5613 5612 5612 5613 5613 5613 5613 5613 5615 5617 5618 5618 5618 5619 5618 5617 5616 5617 5617 5617 5618 5619 5619 5620 5620 5621 5622 5621 5620 5621 5621 5620 5619 5619 5619 5619 5619 5618 5619 5620 5621 5622 5622 5622 5622 5623 5623 5624 5626 5628 5629 5629 5628 5627 5627 5627 5627 5628 5630 5632 5633 5634 5634 5632 5632 5633 5634 5635 5636 5637 5638 5638 5639 5639 5640 5640 5640 5641 5641 5640 5640 5641 5641
5605 5606 5607 5607 5607 5607 5607 5607 5606 5606 5606 5608 5609 5610 5611 5611 5611 5610 5609 5610 5612 5611 5610 5611 5612 5613 5613 5613 5614 5614 5614 5614 5615 5616 5615 5614 5613 5612 5612 5611 5611 5611 5611 5611 5612 5613 5613 5613 5614 5615 5616 5617 5618 5619 5620 5619 5618 5618 5619 5619 5619 5620 5622 5624 5625 5625 5625 5625 5626 5626 5627 5627 5628 5630 5631 5631 5632 5632 5632 5632 5633 5633 5633 5633 5634 5635
5599 5600 5601 5601 5601 5601 5602 5601 5601 5601 5601 5601 5601 5603 5605 5605 5604 5602 5602 5604 5606 5605 5603 5604 5606 5606 5606 5606 5606 5607 5607 5608 5608 5609 5609 5608 5607 5606 5605 5604 5604 5603 5603 5603 5602 5603 5604 5604 5605 5606 5607 5608 5609 5610 5610 5610 5610 5610 5610 5610 5610 5611 5612 5614 5615 5615 5616 5617 5618 5619 5619 5620 5620 5621 5622 5623 5624 5624 5624 5624 5625 5625 5625 5625 5627 5628
5595 5595 5595 5596 5596 5597 5597 5596 5596 5596 5595 5594 5594 5597 5599 5598 5597 5597 5597 5598 5599 5598 5598 5598 5599 5599 5599 5598 5598 5599 5599 5600 5600 5600 5600 5599 5598 5597 5596 5596 5595 5595 5594 5594 5593 5593 5594 5596 5596 5597 5597 5598 5599 5599 5600 5601 5602 5601 5601 5601 5602 5602 5603 5604 5606 5606 5607 5608 5610 5611 5612 5612 5612 5612 5613 5613 5614 5615 5616 5616 5616 5616 5617 5618 5620 5621
5590 5590 5590 5591 5591 5592 5592 5592 5591 5590 5589 5588 5590 5592 5593 5592 5591 5592 5592 5592 5592 5592 5592 5591 5591 5591 5591 5590 5589 5589 5589 5590 5590 5590 5590 5590 5589 5589 5588 5588 5588 5587 5587 5586 5586 5586 5586 5587 5588 5588 5588 5588 5589 5590 5591 5592 5592 5593 5593 5593 5594 5594 5594 5595 5597 5598 5599 5600 5601 5602 5602 5603 5603 5604 5604 5604 5604 5606 5607 5608 5608 5609 5609 5611 5612 5613
5585 5585 5584 5585 5586 5587 5586 5586 5586 5585 5584 5585 5586 5587 5586 5586 5586 5586 5586 5586 5585 5584 5583 5583 5582 5581 5581 5580 5580 5580 5580 5580 5581 5581 5582 5582 5582 5581 5581 5581 5580 5580 5579 5578 5578 5578 5578 5579 5580 5580 5580 5580 5580 5580 5582 5583 5584 5584 5584 5585 5586 5586 5586 5586 5587 5588 5590 5591 5592 5593 5593 5593 5594 5594 5594 5594 5595 5597 5599 5600 5600 5601 5602 5603 5604 5605
5580 5580 5579 5579 5580 5581 5581 5580 5580 5580 5581 5581 5581 5581 5581 5581 5580 5579 5579 5578 5577 5576 5575 5574 5574 5573 5572 5571 5571 5571 5571 5571 5571 5572 5572 5572 5572 5572 5571 5572 5571 5571 5570 5570 5569 5569 5569 5570 5570 5571 5572 5572 5571 5571 5572 5573 5574 5574 5575 5576 5576 5577 5577 5577 5578 5578 5580 5581 5583 5584 5585 5585 5585 5584 5585 5586 5587 5589 5591 5591 5592 5593 5594 5595 5596 5598
5575 5575 5574 5573 5574 5575 5575 5575 5575 5576 5576 5576 5576 5575 5574 5574 5572 5571 5570 5569 5568 5568 5567 5567 5566 5565 5564 5563 5562 5562 5562 5562 5562 5562 5561 5561 5561 5561 5561 5561 5561 5561 5561 5560 5560 5559 5560 5560 5561 5561 5562 5563 5563 5563 5563 5563 5564 5564 5565 5566 5566 5567 5567 5567 5568 5568 5569 5571 5572 5574 5575 5576 5577 5577 5577 5578 5579 5581 5582 5583 5583 5585 5586 5587 5589 5591
5571 5570 5570 5569 5569 5570 5571 5570 5569 5569 5569 5569 5568 5568 5567 5565 5564 5563 5563 5562 5562 5561 5560 5559 5558 5557 5556 5555 5554 5554 5555 5554 5553 5553 5552 5552 5552 5551 5551 5551 5551 5551 5551 5551 5550 5550 5550 5550 5551 5552 5553 5553 5554 5554 5554 5554 5554 5555 5556 5556 5557 5557 5557 5558 5558 5559 5560 5561 5562 5563 5565 5566 5568 5569 5570 5571 5572 5574 5575 5575 5576 5577 5579 5580 5582 5583
5566 5566 5566 5566 5566 5566 5566 5566 5564 5563 5562 5561 5560 5560 5560 5559 5558 5557 5556 5556 5554 5553 5552 5551 5550 5549 5548 5547 5546 5546 5546 5545 5544 5543 5543 5543 5542 5542 5542 5542 5542 5542 5541 5541 5540 5540 5540 5541 5542 5543 5544 5545 5545 5545 5545 5545 5545 5545 5545 5546 5547 5548 5548 5549 5550 5551 5552 5552 5553 5554 5555 5557 5559 5561 5562 5563 5565 5567 5567 5568 5569 5571 5572 5573 5574 5576
5562 5562 5562 5562 5562 5562 5561 5561 5560 5559 5557 5556 5555 5554 5553 5553 5552 5551 5550 5549 5548 5546 5545 5544 5543 5542 5540 5539 5538 5537 5536 5536 5535 5534 5534 5533 5533 5532 5532 5532 5532 5532 5531 5531 5531 5531 5532 5532 5533 5534 5535 5536 5536 5536 5536 5536 5536 5536 5536 5536 5537 5538 5539 5540 5541 5543 5544 5545 5545 5546 5547 5548 5549 5551 5552 5555 5557 5559 5560 5561 5563 5564 5565 5565 5566 5568
5559 5558 5558 5558 5557 5557 5556 5555 5554 5553 5552 5551 5550 5549 5548 5548 5546 5545 5544 5543 5541 5540 5539 5538 5537 5535 5534 5532 5530 5528 5527 5527 5526 5525 5524 5524 5524 5523 5523 5523 5523 5523 5522 5521 5521 5522 5522 5523 5524 5525 5526 5526 5526 5527 5527 5527 5528 5527 5527 5527 5527 5528 5530 5531 5532 5534 5536 5536 5537 5538 5539 5540 5541 5542 5543 5545 5548 5550 5552 5553 5555 5556 5557 5558 5559 5560